Meath Environmental Platform

Observations for Trim Market St

Time AQI Temp °C Hum % Pres Pa CO μg/m³ H₂S μg/m³ NO μg/m³ NO₂ μg/m³ O₃ μg/m³ SO₂ μg/m³ PM1 μg/m³ PM2.5 μg/m³ PM10 μg/m³
Saturday 11 July 2026
15:25 1 38.1 30 66,690 0 0 0 0 10.39 3.46 2.85 6.55 6.66
15:21 1 38.1 30 66,661 0 10.36 0 7.17 37.43 3.47 1.43 5.47 6.02
15:19 1 38.2 30 66,675 0 0 0 0 0 3.42 2.85 6.57 7.52
15:13 1 38.3 30 66,750 0 0 0 0 10.72 3.04 2.14 4.94 5.44
15:12 1 38.3 30 66,764 0 0 0 0 0 3.47 2.14 6.56 6.66
15:11 1 38.3 30 66,752 0 0 0 13.7 9.73 3.82 2.85 6.55 6.66
15:10 1 38.3 30 66,754 0 1.12 0 9.2 27.83 3 2.85 6.55 6.66
15:09 1 38.3 30 66,760 0 1.77 0 12.09 5.53 2.76 2.85 6.55 6.66
15:08 1 38.2 30 66,739 0 5.47 0 14.03 22.26 2.5 2.14 5.47 6.01
15:07 1 38.2 30 66,731 0 0 0 9.16 9.98 2.91 2.85 6.57 6.66
15:06 1 38.3 30 66,731 0 0 0 6.43 0 3.35 2.14 5.48 6.03
15:05 1 38.3 30 66,735 0 0 0 14.41 0.78 1.99 2.14 5.47 6.02
15:04 1 38.3 30 66,731 0 0 0 6.2 0 3.41 2.85 6.01 8.39
15:03 1 38.3 30 66,760 0 0.11 0 11.03 19.47 2.58 2.14 5.48 6.03
15:02 1 38.3 30 66,735 0 0 0 19.65 11.98 1.6 2.14 6.03 6.66
15:01 1 38.3 30 66,735 0 0 0 0.67 7.57 3.2 3.56 7.13 7.52
15:00 1 38.3 30 66,737 0 0.09 0 10.27 27.64 2.83 3.56 6.58 8.39
14:58 1 38.2 30 66,735 0 0 0 0 15.82 3.35 2.14 6.03 6.66
14:54 1 38.3 30 66,760 0 0 0 0 0 3.26 2.85 6.57 8.39
14:53 1 38.4 30 66,766 0 0 0 16.78 3.39 0.54 3.56 6.56 6.66